13:23
Airports
History
Links
Donate
Help keep this website running!
PayPal
Bitcoin
This page is community maintained. The information is intended for PC simulator navigation or reference.
Always use approved charts for navigation.
CYUB
TUKTOYAKTUK
TUKTOYAKTUK (CYUB)
Tuktoyaktuk, Northwest Territories, Canada
4
Lat/Lng:69° 26' 0" N / 133° 1' 35.01" W
69.433334 / -133.026391
Elevation:15'ft / 5mMSL
ID / ICAO:CYUB
Runways:1
Longest:09-27
Gravel 1,529m / 5,016ft
METAR06:00 GMT 2018-01-20
Altimeter: 29.91
Visibility: 0.5 statute miles
Wind: 27 knots (from 300°)
Temp: -17°c / 1°f
Humidity: 91.9%

METAR: CYUB 200600Z 30027G32KT 1/2SM -SN BLSN VV011 M17/M18 A2991 RMK BLSN8 MUCH LOOSE LAST OBS/NEXT OBS 201400UTC SLP132

(Powered by phpweather)
Airport Radio Frequencies
MANDATORY FREQ: 122.1
Nearby VORs <50NM
Nearby NDBs
Runway 09 / 27
Dimensions:1528.9 x 45.7m 5016' x 150'ft
Surface:Gravel
Edge Lights:Medium intensity
Runway 09 [A]Runway 27 [B]
Heading:124°TH 304°TH
Lat:
Lng:
69° 26' 14.01"N
133° 2' 33"W
69° 25' 45.99"N
133° 0' 37.01"W
TDZ:Yes, lighted
User Notes and Comments
69° 26' 0" N / 133° 1' 35.01" W
Distance To
Airport ID:
Nearby Airports
(U) INUVIK MIKE ZUBKO 78.9 NM
CYEV ( WX ) S 188°
4 Aklavik 97.0 NM
CYKD SSW 210°
4 FORT MCPHERSON 147.5 NM
CZFM ( WX ) SSW 198°
(C) Midway 162.2 NM
CBA4 SSW 200°
4 Old Crow 215.1 NM
CYOC ( WX ) SW 233°
4 PAULATUK 217.9 NM
CYPC E 91°
4 Eagle Plains 223.2 NM
AJ2 SSW 204°
VFR Chart
Flight Planning at SkyVector.com